Tracking 20093 objects as of 14-Dec-2019
HD Live streaming from Space Station
objects crossing your sky now

FENGYUN 1C DEB

Track FENGYUN 1C DEB now!
10-day predictions


NORAD ID: 30545
Int'l Code: 1999-025AKK
Perigee: 834.3 km
Apogee: 1,555.3 km
Inclination: 99.0 °
Period: 109.2 minutes
Semi major axis: 7565 km
RCS: 0.011 m2 (small)
Launch date: May 10, 1999
Source: People's Republic of China (PRC)
Launch site: Taiyaun Space Center, China (TSC)

Note: This is SATELLITE DEBRIS
aabbcc
Your satellite tracking list
Your tracking list is empty




NASA's NSSDC Master Catalog

Two Line Element Set (TLE):
1 30545U 99025AKK 19347.30883294  .00000122  00000-0  22413-3 0  9993
2 30545  99.0460 105.8000 0476497 265.1563 115.9299 13.19230925620656
Source of the keplerian elements: AFSPC